Location: ????????
(55.0808°N, 38.5463°E)
Time: 02:30:55
(UTC+00:00)

Nimbus 3 Rocket - Pass Details

Date: 25 September 2024
Orbit: 1072 x 1131 km, 99.9° (Epoch: 03 October)

Event Time Altitude Azimuth Distance (km) Brightness Sun altitude
Rises 20:10:50 0° 22° (NNE) 3,904 8.7 -34.5°
Reaches altitude 10° 20:13:57 10° 36° (NE) 2,935 7.8 -34.7°
Enters shadow 20:17:12 21° 63° (ENE) 2,200 6.9 -34.8°
